星链-37391(STARLINK-37391)

导读

STARLINK-37391(NORAD编号68779)是SpaceX星链(Starlink)星座中的一颗低轨互联网通信卫星,隶属于星链第二代组网任务。星链项目旨在构建覆盖全球的天基宽带互联网,为偏远地区、网络覆盖不足区域提供高速互联网接入服务。 该卫星运行在近地轨道,轨道周期约90余分钟,通过猎鹰9号火箭执行发射任务,属于SpaceX批量组网的卫星之一。截至2025年,星链星座活跃卫星已超7600颗,STARLINK-37399是SpaceX持续扩大星座覆盖、提升服务容量的重要组成部分,支持包括手机直连在内的新一代星链通信服务能力。

Basic Information
目录编号:
68779
目录名称:
STARLINK-37391
国际标识:
2026-086P
轨道中心:
EARTH
卫星名称:
星链-37391
卫星全名:
星链-37391(STARLINK-37391)
卫星状态:
在轨 (已飞行145 天)
发射日期:
2026-04-19 UTC
国别 :
美国 (US)
星等 :
--
This satellite is enrolled in the Space Conjunction Data Service (SCDS) and the current flight risk assessment level is: No High Risk
Orbit Information
数据来源 国际轨道数据 AOE轨道数据
星历时间 2026-09-11T14:54:19+0800
7小时前
查看轨道信息
2026-09-06T22:00:00+0800
5天前
查看轨道信息
半长轴 6843.701km 6843.735km
偏心率 0.0001043 0.0000758
轨道倾角 97.284° 97.285°
近地点辐角 107.974° 110.993°
升交点赤经 289.856° 285.217°
平近点角 252.162° 216.011°
近地点 464.85km 465.079km
远地点 466.278km 466.117km
周期 93.907分钟 93.907分钟
每日圈数 15.334382 15.334268
Detailed Information
固有亮度:
5
最大亮度:
2.5
卫星平台:
Starlink V1.0
覆盖范围:
全球
运营商:
太空探索技术公司
运营商所在国:
美国
制造商(研发单位):
太空探索技术公司
制造商所在国:
美国
使用方式:
暂无
Satellite Introduction
Starlink 计划是 SpaceX 推出的全球卫星互联网项目,通过发射低轨道卫星,为全球尤其是偏远地区提供高速、低延迟的互联网服务。自 2019 年起,Starlink 已部署数千颗卫星,旨在缩小全球数字鸿沟,推动互联网普及。该项目还为军事、航空等行业提供通信支持,带来广泛经济效益。
2D Orbit Map
3D Orbit Map
Orbit Altitude Analysis Chart
Orbit Inclination Analysis Chart
Orbit Comprehensive Analysis Chart
View Comprehensive Chart
Conjunction Data List
Event ID Objects TCA Miss Dist (km) Collision Risk Probability Collision Risk Index (CRI) Action
CDM_260913-182003-052006-877921
2026-09-13T
18:20:30+0000
2.048 km
极远距离
2.728989E-6 低风险 0.44
CDM_260911-210906-623906-877921
2026-09-11T
21:09:28+0000
2.673 km
极远距离
1.544055E-6 低风险 0.39
CDM_260912-032805-111606-877921
2026-09-12T
03:28:51+0000
2.829 km
极远距离
1.369681E-6 低风险 0.38
CDM_260905-015705-248906-877921
2026-09-05T
01:57:16+0000
2.767 km
极远距离
1.010708E-6 低风险 0.35
CDM_260911-192106-419506-877921
2026-09-11T
19:21:35+0000
2.991 km
极远距离
8.11492E-7 极低风险 0.33
CDM_260913-052901-258606-877921
SL-3 R/B (12586)
2026-09-13T
05:29:12+0000
2.770 km
极远距离
4.748474E-7 极低风险 0.29
Miss Distance Evolution Trend with All Objects
Collision Probability Evolution Trend with All Objects